Location: Quaker Farms
(41.4276°N, 73.1557°W)
Time: 02:06:22
(UTC+00:00)

Altair - Pass Details

Date: 21 June 2021
Orbit: 1501 x 1682 km, 47.2° (Epoch: 23 July)

Event Time Altitude Azimuth Distance (km) Brightness Sun altitude
Rises 16:43:47 0° 219° (SW) 4,640 10.2 71.9°
Reaches altitude 10° 16:46:51 10° 215° (SW) 3,674 9.9 71.9°
Maximum altitude 16:55:49 56° 140° (SE) 1,799 9.5 72.0°
Drops below altitude 10° 17:05:07 10° 66° (ENE) 3,813 9.6 71.9°
Sets 17:08:20 0° 63° (ENE) 4,826 10.0 71.8°
